Regional Weather Roundup
Issued by NWS Upton, NY

Current Version | Previous Version | Graphics & Text | Print | Product List | Glossary Off
Versions: 1 2 3 4 5 6 7 8 9 10 11 12 13 14 15 16 17 18 19 20 21 22 23 24 25 26 27 28 29 30 31 32 33 34 35 36 37 38 39 40 41 42 43 44 45 46 47 48 49 50

000
ASUS41 KOKX 251008
RWROKX

REGIONAL WEATHER ROUNDUP
NATIONAL WEATHER SERVICE NEW YORK NY
600 AM EDT SAT APR 25 2015

NOTE: "FAIR" INDICATES FEW OR NO CLOUDS BELOW 12,000 FEET WITH NO
SIGNIFICANT WEATHER AND/OR OBSTRUCTIONS TO VISIBILITY.

NYZ071-072-176-178-NJZ106-104-251100-
NEW YORK CITY METRO AREA


CITY           SKY/WX    TMP DP  RH WIND       PRES   REMARKS
CENTRAL PARK   CLEAR     38  22  52 W8        29.94R WCI  32
LAGUARDIA APRT CLEAR     39  22  50 W12G18    29.91S WCI  32
KENNEDY INTL   CLEAR     39  22  50 W13       29.93R WCI  31
NEWARK/LIBERTY CLEAR     37  23  56 W9        29.93S WCI  30
BRNX BOT. GARD   N/A     37  23  56 W6        29.91F WCI  33
TETERBORO      CLEAR     36  22  56 W5        29.92R WCI  32
$$

NYZ177-179-078>081-251100-
LONG ISLAND NEW YORK

CITY           SKY/WX    TMP DP  RH WIND       PRES   REMARKS
FARMINGDALE    CLEAR     37  22  54 W9        29.91R WCI  30
ISLIP          CLEAR     34  22  61 W7        29.88R WCI  28
SHIRLEY        CLEAR     32  22  66 W6        29.90R WCI  26
WESTHAMPTON    CLEAR     25  17  72 NW3       29.89R
MONTAUK POINT    N/A     39  25  57 W10G22    29.86R WCI  32
$$

NYZ052-065-067-251100-
HUDSON VALLEY

CITY           SKY/WX    TMP DP  RH WIND       PRES   REMARKS
WHITE PLAINS   CLEAR     34  21  59 W7        29.88R WCI  28
NEWBURGH       CLEAR     30  23  74 SW7       29.90R WCI  23
MONTGOMERY     CLEAR     32  21  64 W10       29.89R WCI  24
POUGHKEEPSIE   CLEAR     28  21  75 CALM      29.89R
ALBANY         PTCLDY    31  22  69 NW3       29.86S
$$

NJZ001-105-106-008-010-013-015-019>022-104-251100-
NEW JERSEY

CITY           SKY/WX    TMP DP  RH WIND       PRES   REMARKS
NEWARK/LIBERTY CLEAR     37  23  56 W9        29.93S WCI  30
TETERBORO      CLEAR     36  22  56 W5        29.92R WCI  32
CALDWELL       CLEAR     34  23  64 CALM      29.93S
MORRISTOWN     CLEAR     36  23  60 CALM      29.92S
SOMERVILLE     CLEAR     26  22  84 CALM      29.92S
SUSSEX         CLEAR     27  21  78 MISG      29.92R
ANDOVER          N/A     30  24  78 CALM      29.91F
TRENTON        CLEAR     35  20  54 W5        29.93F WCI  31
MILLVILLE      CLEAR     27  23  85 CALM      29.96S
ATLANTIC CITY  CLEAR     31  22  69 CALM      29.95F
WRIGHTSTOWN    CLEAR     34  22  62 W7        29.92S WCI  28
TOMS RIVER     CLEAR     27  19  74 W5        29.95R WCI  21
BELMAR         CLEAR     34  19  55 W5        29.93S WCI  30
$$

PAZ047>061-062-071-251100-
EASTERN PENNSYLVANIA

CITY           SKY/WX    TMP DP  RH WIND       PRES   REMARKS
PHILADELPHIA   NOT AVBL
ALLENTOWN      CLEAR     30  20  66 SW5       29.94S WCI  25
SCRANTON       CLEAR     34  22  61 NW9       29.91F WCI  27
$$

CTZ002-004>006-009-010-012-RIZ004-006-007-MAZ004-011-015-251100-
SOUTHERN NEW ENGLAND
 IN CT

CITY           SKY/WX    TMP DP  RH WIND       PRES   REMARKS
BRADLEY INTL   CLEAR     32  22  66 W7        29.82R WCI  26
HARTFORD       CLEAR     34  22  61 W9        29.85R WCI  27
DANBURY        CLEAR     30  19  63 W6        29.88R WCI  24
WTRBRY/OXFORD  CLEAR     30  18  59 W3        29.85R
BRIDGEPORT     CLEAR     35  24  64 W7        29.88R WCI  29
MERIDEN        CLEAR     28  22  78 CALM      29.86R
NEW HAVEN      CLEAR     36  23  59 VRB5      29.87R WCI  32
CHESTER        FAIR      32  23  69 W5        29.84R WCI  27
GROTON         CLEAR     35  21  56 W10       29.85R WCI  27
WILLIMANTIC    CLEAR     33  21  61 W5        29.83R WCI  29

 IN RI

CITY           SKY/WX    TMP DP  RH WIND       PRES   REMARKS
PROVIDENCE     CLEAR     33  22  63 W10       29.82R WCI  25
BLOCK ISLAND   CLEAR     37  21  52 W10       29.84R WCI  30
WESTERLY       CLEAR     34  22  61 W5        29.85R WCI  30

 IN MA

CITY           SKY/WX    TMP DP  RH WIND       PRES   REMARKS
BOSTON         PTCLDY    36  22  56 W9        29.77S WCI  29
WORCESTER      CLEAR     31  20  63 W13       29.75R WCI  21
WESTFIELD      CLEAR     33  21  61 W5        29.81R WCI  29
PROVINCETOWN   CLEAR    N/A N/A N/A NW17      29.76S
NANTUCKET      CLEAR     38  25  59 W13       29.78R WCI  30
$$

ANZ330-335-338-340-345-350-353-355-251100-
COASTAL MARINE OBSERVATIONS


STATION/POSITION TIME  SKY/WX   TEMP    WIND        PRES    VSBY  WAVE
                                AIR SEA DIR/SP/G                  HT/PER
                 (UTC)          (F)     (DEG/KT/KT) (MB)    (MI)  (FT/S)
NY HARB ENTRANCE 0950            41 44  310/ 19/ 21 1012.6          2/ 3
4S FIRE IS       0903               43                N/A           2/ 3
20S FIRE ISLAND  0950            40 43  310/ 19/ 23 1012.5          4/ 5
23SW MTP         0950                                 N/A           3/ 5
HUDSON CANYON    NOT AVBL
EXECUTION ROCKS  NOT AVBL
WESTERN LI SOUND NOT AVBL
CENTRAL LI SOUND NOT AVBL
EASTERN LI SOUND 0900            39     280/ 16/ 21   N/A
ROBBINS REEF     0900            38     280/ 15/ 19 1012.1
$$


>>>>>>>>>>>>>>>>>>>>>>>>>>>> KEY <<<<<<<<<<<<<<<<<<<<<<<<<<<
>                                                          <
>     SKY/WX - SKY CONDITION/PRESENT WEATHER               <
>     TMP    - TEMPERATURE IN FAHRENHEIT                   <
>     DP     - DEWPOINT IN FAHRENHEIT                      <
>     RH     - RELATIVE HUMIDITY IN PERCENT                <
>     WIND   - DIRECTION AND SPEED IN MPH                  <
>     PRES   - MEAN SEA LEVEL PRESSURE IN INCHES OF HG     <
>     WCI    - WIND CHILL INDEX                            <
>     VSB    - VISIBILITY IN MILES                         <
>     HX     - HEAT INDEX                                  <
>     TC     - TEMPERATURE IN CELSIUS                      <
>     VRB    - VARIABLE WIND DIRECTION                     <
>                                                          <
>>>>>>>>>>>>>>>>>>>>>>>>>>>> KEY <<<<<<<<<<<<<<<<<<<<<<<<<<<




USA.gov is the U.S. government's official web portal to all federal, state and local government web resources and services.